Location: Bailen
(14.1842°N, 120.7958°E)
Time: 18:41:26
(UTC+00:00)

H-10 deb - Pass Details

Date: 12 January 2026
Orbit: 370 x 32050 km, 7.3° (Epoch: 17 February)

Event Time Altitude Azimuth Distance (km) Brightness Sun altitude
Exits shadow 19:34:37 38° 137° (SE) 1,599 4.3 -39.9°
Drops below altitude 10° 19:45:47 10° 96° (E) 6,426 7.9 -37.3°
Sets 19:59:23 0° 92° (E) 11,511 9.5 -34.1°
